sat.trackr.live / text

‹ back to catalog

MERAH PUTIH 2

NORAD 58995 · 2024-035A

PAYLOAD ACTIVE UNKNOWN

§ Identity

Operator
Country
INDO
Launch date
2024-02-20
Launch site
AFETR
Launch vehicle
Mass (kg)
RCS (m²)

Purposes: comms

External: N2YO · Heavens-Above · Gunter

§ Orbital elements

Epoch: 2026-05-25T00:51:06.241824Z

Period
1,436.10 min
Inclination
0.0183°
Eccentricity
0.0001522
Mean motion
1.00271450 rev/d
Perigee alt
35,780.3 km
Apogee alt
35,793.1 km
Semi-major
42,164.8 km
B*
0.0000e+0
RAAN
283.8066°
Arg perigee
133.0400°
Mean anomaly
311.5184°
Rev number
835

§ Raw data

MERAH PUTIH 21 58995U 24035A   26145.03548891 -.00000360  00000+0  00000+0 0  99942 58995   0.0183 283.8066 0001522 133.0400 311.5184  1.00271450  8353

JSON: /api/v1/satellites/58995 · /tle

For live sub-satellite position, see the globe view (requires WebGL).

§ Visibility from observer

Set your observer location to see the next 7 days of passes ≥ 10°. The values pass through the URL so the page stays shareable.

No JS? Fill the form by hand. The geolocation button needs JavaScript.